www.pogodaiklimat.ru

АРХИВ ПОГОДЫ в Бейкер Сити

Время (UTC), дата Ветер
(напр.,м/с)
 
Видим.   Явления Облачность Т
(С)
Тd
(С)
f
(%)
Тe
(С)
Тes
(С)
Комфортность

P
(гПа)

Po
(гПа)
Тmin
(С)
Tmax
(С)
R
(мм)
SD
(см)
00:14 27.09 З  3 км  дымка  ясно  +22.0  +1.0  25  +22  +22  комфорт  1022.0  903.0  +6.1  +25.6     
01:11 27.09 З  4 км    ясно  +14.0  +1.0  41  +13  +13    1022.5  902.7  +6.1  +25.6     
02:53 27.09 З  16 км    ясно  +12.0  +1.0  47  +11  +11    1021.6  903.0  +6.1  +25.6     
03:53 27.09 С  14 км  переохлажденный туман  ясно  +8.0  +1.0  61  +7  +7    1021.6  903.0  +6.1  +25.6     
04:53 27.09 Ю  6 км  переохлажденный туман  ясно  +9.4  -1.1  48  +8  +8    1021.2  903.3  +6.1  +25.6     
05:53 27.09 Ю  16 км  дымка  ясно  +8.0  0.0  57  +6  +6    1020.8  903.0  0.0  +9.4     
06:53 27.09 штиль  16 км  дымка  ясно  +3.9  -0.6  72  +3  +3    1021.0  903.0  0.0  +9.4     
07:53 27.09 штиль  16 км    ясно  +5.0  -1.1  65  +4  +4    1020.6  903.0  0.0  +9.4     
08:53 27.09 СВ  16 км    ясно  +2.0  -2.0  75  -2  -2    1020.5  902.7  0.0  +9.4     
09:53 27.09 Ю  16 км    ясно  +5.0  -1.0  65  +3  +3    1020.1  902.7  0.0  +9.4     
10:53 27.09 штиль  16 км    ясно  0.0  -3.3  78  -1  -1    1020.7  902.7  0.0  +9.4     
11:53 27.09 штиль  16 км    ясно  0.0  -3.0  80  -1  -1    1020.5  902.4  -0.6  +20.0     
13:53 27.09 СЗ  16 км    ясно  +3.9  -1.7  67  +1  +1    1021.3  902.4  -0.6  +20.0     
14:53 27.09 штиль  16 км  слабый дождь  ясно  +10.0  0.0  50  +10  +10    1020.7  902.4  -0.6  +20.0     
15:53 27.09 В  16 км    ясно  +16.0  0.0  34  +16  +18    1020.0  902.1  -0.6  +20.0     
16:53 27.09 штиль  16 км    ясно  +20.0  -1.7  23  +20  +23    1019.1  901.8  -0.6  +20.0     
17:53 27.09 ЮЗ  16 км    ясно  +22.0  0.0  23  +21  +25  комфорт  1018.5  901.2  +20.0  +28.3     
18:53 27.09 штиль  16 км  слабый дождь  ясно  +25.0  -1.0  18  +23  +30  комфорт  1017.5  900.3  +20.0  +28.3     
19:53 27.09 штиль  13 км    ясно  +26.7  -2.8  14  +24  +31  комфорт  1016.3  899.4  +20.0  +28.3     
20:53 27.09 СЗ  10 км    ясно  +28.0  -2.0  14  +25  +28  комфорт  1015.4  898.8  +20.0  +28.3     
21:53 27.09 СЗ  14 км  слабый дождь  ясно  +28.0  +1.0  17  +26  +28  жарко  1014.4  897.9  +20.0  +28.3     
22:53 27.09 СЗ  16 км    ясно  +27.8  +1.1  18  +26  +27  жарко  1014.7  897.9  +20.0  +28.3     
23:53 27.09 СЗ  16 км    ясно  +25.0  +2.0  22  +24  +24  комфорт  1014.6  897.3  +9.4  +27.8     
00:53 28.09 ЮЗ  8 км    ясно  +18.0  +3.0  37  +18  +18    1015.3  897.3  +9.4  +27.8     
01:53 28.09 СВ  16 км  слабый дождь  ясно  +14.4  +2.2  44  +15  +15    1015.5  897.6  +9.4  +27.8     
02:53 28.09 Ю  16 км  слабый дождь  ясно  +13.0  +1.0  44  +13  +13    1015.2  897.9  +9.4  +27.8     
03:12 28.09 штиль  2 км  слабый дождь  ясно  +13.0  +1.0  44  +13  +13    1014.8  897.6  +9.4  +27.8     
04:53 28.09 ЮВ  16 км    ясно  +9.4  +1.1  56  +9  +9    1014.8  897.9  +9.4  +27.8     
05:53 28.09 Ю  16 км  слабый дождь  ясно  +7.0  +2.0  70  +6  +6    1014.9  898.2  +2.8  +10.0     
06:53 28.09 штиль  16 км  слабый дождь, дымка  ясно  +7.2  +1.1  65  +7  +7    1014.7  898.2  +2.8  +10.0     
07:53 28.09 Ю  16 км  слабый дождь  ясно  +8.9  +0.6  56  +6  +6    1014.4  898.2  +2.8  +10.0     
08:53 28.09 штиль  16 км  слабый дождь  ясно  +7.0  0.0  61  +7  +7    1014.0  897.9  +2.8  +10.0     
09:53 28.09 штиль  16 км  слабый дождь  ясно  +4.0  0.0  75  +3  +3    1013.9  897.6  +2.8  +10.0     
10:53 28.09 штиль  16 км    ясно  +3.3  -0.6  76  +2  +2    1014.3  897.9  +2.8  +10.0     
11:53 28.09 штиль  16 км    ясно  +2.0  -1.0  80  +1  +1    1014.6  897.6  +1.1  +19.4     
12:53 28.09 З  16 км    ясно  +3.0  -1.0  75  -0  -0    1015.3  897.6  +1.1  +19.4     
13:53 28.09 В  16 км    ясно  +5.6  +1.1  73  +4  +4    1015.7  897.9  +1.1  +19.4     
14:53 28.09 Ю  16 км    ясно  +12.0  +1.0  47  +12  +12    1015.0  897.6  +1.1  +19.4     
15:53 28.09 нст  16 км    ясно  +18.0  +3.0  37  +19  +20    1013.9  897.3  +1.1  +19.4     
16:53 28.09 нст  16 км    ясно  +19.4  +3.3  34  +20  +22    1013.6  897.0  +1.1  +19.4     
17:53 28.09 ЮЗ  16 км    ясно  +22.0  +4.0  31  +22  +26  комфорт  1012.6  896.1  +19.4  +27.2     
18:53 28.09 нст  16 км    ясно  +24.0  +4.0  27  +24  +29  комфорт  1011.2  895.2  +19.4  +27.2     
19:53 28.09 штиль  16 км    ясно  +26.1  +3.3  23  +25  +32  комфорт  1009.6  894.0  +19.4  +27.2     
20:53 28.09 З  16 км    ясно  +27.0  +4.0  23  +26  +30  жарко  1008.8  893.1  +19.4  +27.2     
21:53 28.09 З   16 км    ясно  +27.0  +4.0  23  +26  +28  жарко  1008.5  892.8  +19.4  +27.2     
22:53 28.09 З  16 км    ясно  +26.1  +4.4  25  +25  +27  комфорт  1008.4  892.5  +19.4  +27.2     
23:53 28.09 З   11 км    ясно  +24.0  +6.0  31  +24  +25  комфорт  1008.5  892.2  +11.1  +26.1     
00:53 29.09 З  5 км    ясно  +17.0  +4.0  42  +17  +17    1009.1  892.2  +11.1  +26.1     

 

Местоположение метеостанции Baker City Municipal Airport: широта 44.8372 долгота -117.8092 высота над уровнем моря 1028 м.

В архиве по умолчанию представлена погода в Бейкер Сити за последние 1-2 суток. Обновление информации о фактической погоде в базе происходит ежечасно! Архивные данные за месяц целиком и за предыдущие месяцы Вы можете получить, выбрав интересующий диапазон дат из раскрывающегося списка и нажав кнопку "Ввод!".

Внимание! Архив погоды МЕТАР в базе сайта в настоящее время начинается c 1 января 2013 г. Нет смысла пытаться выбрать более раннюю дату.

Внимание! Время в таблицах - всемирное. Для получения местного времени необходимо прибавить поправку, которая в Бейкер Сити равна -8 ч.

Ветер - указаны скорость ветра в м/с и направление, откуда дует ветер: С - северный, СВ - северо-восточный, В - восточный, ЮВ - юго-восточный, Ю - южный, ЮЗ - юго-западный, З - западный, СЗ - северо-западный.
Видимость - горизонтальная дальность видимости в метрах или километрах. При видимости от 1 до 10 км при отсутствии осадков обычно наблюдается дымка, при ухудшении видимости до 1 км и менее - туман. В сухую погоду видимость может ухудшаться дымом, пылью или мглою.
Атмосферные явления - указаны явления, наблюдавшиеся в указанный момент времени.
Облачность - указаны через наклонную черту верхняя и нижняя облачность в баллах и высота нижней границы облаков в метрах. Внимание: облачность, как и прочие метеорологические величины в США измеряются автоматическими метеостанциями. Указанные значения в баллах носят условный характер и показывают процент времени, в течение которого, в среднем, лазерный луч высотомера отражался от облаков обратно.
T - Температура воздуха - температура, измеренная на высоте 2 м над землей.
Td - Температура точки росы - температура, при понижении до которой содержащийся в воздухе водяной пар достигнет насыщения.
f - Относительная влажность воздуха - влажноcть воздуха, измеренная на высоте 2 м над землей.
Te - Эффективная температура - температура, которую ощущает одетый по сезону человек в тени. Характеристика душности погоды. При расчете учитывается влияние влажности воздуха и скорости ветра на теплоощущения человека.
Tes - Эффективная температура на солнце - температура, которую ощущает человек, с поправкой на солнечный нагрев. Характеристика знойности погоды. Зависит от высоты солнца над горизонтом, облачности и скорости ветра. Ночью, в пасмурную погоду, а также при ветре 12 м/с и более поправка равна нулю.
P - Атмосферное давление - приведенное к уровню моря атмосферное давление.
Po - Атмосферное давление - измеренное на уровне метеостанции атмосферное давление.
Tmin - Минимальная температура - минимум температуры воздуха на высоте 2 м над землей.
Tmax - Максимальная температура - максимум температуры воздуха на высоте 2 м над землей.
R - Количество осадков - Количество выпавших осадков за 3 или 6 часов, мм.
SD - Снежный покров - Высота снежного покрова, см.